#timestamp,LO_Frequency,Hit,StdDev 
1507204815.2,286046996.3,N
1507204835.0,286046994.0,N
1507204835.9,286046994.0,N
1507204855.7,286046995.4,N
1507204875.6,286047000.2,N
1507204895.4,286047002.0,N
1507204915.2,286047007.2,N
1507204935.1,286047003.4,N
1507204936.0,286047003.4,N
1507204955.8,286047004.3,N
1507204975.6,286047004.4,N
1507204995.5,286047006.0,N
1507205015.3,286047004.2,N
1507205035.1,286047002.8,N
1507205055.9,286046996.5,N
1507205075.7,286046996.5,N
1507205095.5,286047000.9,N
1507205115.4,286047002.3,N
1507205135.2,286047003.4,N
1507205155.0,286047000.2,N
1507205155.9,286047000.2,N
1507205175.8,286046998.1,N
1507205195.6,286046998.6,N
1507205215.4,286046994.1,N
1507205235.2,286046994.1,N
1507205255.1,286046996.1,N
1507205256.0,286046996.1,N
1507205275.8,286046991.7,N
1507205295.6,286046992.4,N
1507205315.5,286046995.1,N
1507205335.3,286046996.9,N
1507205355.4,286047000.6,N
1507205375.2,286046998.8,N
1507205395.1,286047002.6,N
1507205396.0,286047002.6,N
1507205415.8,286047001.7,N
1507205435.6,286047003.7,N
1507205455.5,286047005.8,N
1507205475.3,286047000.0,N
1507205495.1,286047004.8,N
1507205515.9,286047003.5,N
1507205535.7,286047002.2,N
1507205555.5,286047000.6,N
1507205575.3,286047000.6,N
1507205595.2,286047000.7,N
1507205615.0,286047002.5,N
1507205615.9,286047002.5,N
1507205635.7,286047000.0,N
1507205655.6,286046998.6,N
1507205675.4,286046999.9,N
1507205695.2,286047001.1,N
1507205715.1,286047001.4,N
1507205716.0,286047001.4,N
1507205735.8,286047001.0,N
1507205755.6,286046999.8,N
1507205775.5,286047002.1,N
1507205795.3,286047002.7,N
1507205815.1,286047001.6,N
1507205835.9,286047001.2,N
1507205855.7,286047001.6,N
1507205875.5,286047001.5,N
1507205895.4,286047000.7,N
1507205915.2,286047000.3,N
1507205935.0,286046999.3,N
1507205935.9,286046999.3,N
1507205955.8,286047001.0,N
1507205975.6,286047002.6,N
1507205995.4,286047000.4,N
1507206015.2,286046997.1,N
1507206035.1,286046999.2,N
1507206036.0,286046999.2,N
1507206055.8,286046999.3,N
1507206075.6,286046996.6,N
1507206095.5,286046996.9,N
1507206115.3,286047002.7,N
1507206135.1,286046999.4,N
1507206155.9,286046997.5,N
1507206175.7,286046999.2,N
1507206195.5,286047001.2,N
1507206215.4,286047000.8,N
1507206235.2,286047004.3,N
1507206255.0,286046996.5,N
1507206255.9,286046996.5,N
1507206275.8,286046995.5,N
1507206295.6,286046999.5,N
1507206315.4,286046997.2,N
1507206335.3,286046999.6,N
1507206355.1,286046996.2,N
1507206356.0,286046996.2,N
1507206375.8,286046994.2,N
1507206395.7,286046993.1,N
1507206415.5,286046992.5,N
1507206435.3,286046996.1,N
1507206455.1,286046998.3,N
1507206475.9,286046999.0,N
1507206495.7,286046995.3,N
1507206515.5,286047000.1,N
1507206535.4,286047000.6,N
1507206555.2,286046996.7,N
1507206575.0,286046997.0,N
1507206575.9,286046997.0,N
1507206595.8,286046997.0,N
1507206615.6,286046995.9,N
1507206635.4,286046994.0,N
1507206655.3,286046995.3,N
1507206675.1,286046993.5,N
1507206676.0,286046993.5,N
1507206695.8,286046993.6,N
1507206715.7,286046996.0,N
1507206735.5,286046993.4,N
1507206755.3,286046997.0,N
1507206775.2,286046996.8,N
1507206795.9,286046996.6,N
1507206815.7,286046997.0,N
1507206835.5,286046996.6,N
1507206855.4,286046995.1,N
1507206875.2,286046990.1,Y
1507206895.0,286046995.4,P
1507206896.0,286046995.4,P
1507206915.8,286046997.2,P
1507206935.6,286047000.8,N
1507206955.4,286046998.7,N
1507206975.3,286046995.1,N
1507206995.1,286046999.0,N
1507207015.8,286046998.6,N
1507207035.7,286047002.0,N
1507207055.5,286047001.2,N
1507207075.3,286047003.3,N
1507207095.2,286046998.5,N
1507207115.9,286047000.9,N
1507207135.7,286046997.5,N
1507207155.6,286047000.0,N
1507207175.4,286047001.9,N
1507207195.2,286047003.2,N
1507207215.0,286047003.8,N
1507207215.9,286047003.8,N
1507207235.8,286046999.5,N
1507207255.6,286046996.0,N
1507207275.4,286046996.5,N
1507207295.3,286046997.1,N
1507207315.1,286047000.5,N
1507207335.8,286047001.8,N
1507207355.7,286047000.6,N
1507207375.5,286047002.6,N
1507207395.3,286047000.3,N
1507207415.2,286047000.3,N
1507207435.9,286046998.9,N
1507207455.7,286046999.2,N
1507207475.5,286046999.7,N
1507207495.4,286046999.0,N
1507207515.2,286046995.0,N
1507207535.0,286046999.2,N
1507207535.9,286046999.2,N
1507207555.8,286046997.8,N
1507207575.6,286046996.9,N
1507207595.4,286046998.4,N
1507207615.3,286047002.5,N
1507207635.1,286047002.3,N
1507207655.8,286047001.8,N
1507207675.7,286047003.8,N
1507207695.5,286047004.8,N
1507207715.3,286047003.0,N
1507207735.2,286047003.6,N
1507207755.9,286047001.7,N
1507207775.7,286047003.7,N
1507207795.6,286047001.8,N
1507207815.4,286047005.2,N
1507207835.2,286047006.9,N
1507207855.0,286047006.1,N
1507207855.9,286047006.1,N
1507207875.8,286047003.0,N
1507207895.6,286047005.8,N
1507207915.4,286047001.7,N
1507207935.3,286046999.7,N
1507207955.1,286047002.9,N
1507207975.8,286047005.8,N
1507207995.7,286047005.4,N
1507208015.5,286047008.8,N
1507208035.3,286047004.8,N
1507208055.2,286047005.8,N
1507208075.9,286047002.4,N
1507208095.7,286047000.3,N
1507208115.6,286047002.4,N
1507208135.4,286046998.3,N
1507208155.2,286046999.1,N
1507208175.1,286047000.9,N
1507208176.0,286047000.9,N
1507208195.8,286047003.9,N
1507208215.6,286047002.3,N
1507208235.4,286047001.1,N
1507208255.3,286047002.7,N
1507208275.1,286047002.9,N
1507208295.8,286047004.0,N
1507208315.7,286047002.7,N
1507208335.5,286047000.7,N
1507208355.3,286047003.4,N
1507208375.2,286047005.8,N
1507208395.9,286047001.7,N
